Zurück zum Katalog

BSAT-1B

AktivKommunikationGEO
NORAD 25312·PAYLOAD·🇯🇵 Japan

Gestartet Apr 28, 1998 von Guiana Space Centre

Loading…

TLE

AktuellSource: Space-Track

Epoche: Sep 14, 2026, 05:07 UTC

1 25312U 98024B   26257.21371736 -.00000258  00000-0  00000-0 0  9994
2 25312  11.6678  43.7316 0003942 223.3143 137.7753  0.99122328 47048

Verfolge BSAT-1B in Echtzeit mit AllMySat

Download on the App Store